CW2195 Weather Reports


Display with metric or nautical units.
time (UTC)temp
F
wind
direction
speed
MPH
gust
MPH
rain 1hr
in
rain 24hr
in
rain mn
in
humidity
%
barometer
mb
20260504044504 50 249 1.0 3.0 0.00 0.00 0.00 54 1018.5
20260504044004 50 306 0.0 3.0 0.00 0.00 0.00 54 1018.5
20260504043505 50 263 1.0 3.0 0.00 0.00 0.00 55 1018.4
20260504043004 50 29 0.0 2.0 0.00 0.00 0.00 56 1018.2
20260504042503 50 29 0.0 2.0 0.00 0.00 0.00 56 1018.2
20260504041504 49 28 0.0 2.0 0.00 0.00 0.00 57 1018.3
20260504041004 48 28 0.0 2.0 0.00 0.00 0.00 54 1018.3
20260504040505 48 28 0.0 1.0 0.00 0.00 0.00 57 1018.3
20260504040004 47 28 0.0 1.0 0.00 0.00 0.00 58 1018.4
20260504035504 47 28 0.0 3.0 0.00 0.00 0.00 61 1018.4
20260504034503 48 28 0.0 3.0 0.00 0.00 0.00 56 1018.4
20260504034004 48 115 0.0 0.0 0.00 0.00 0.00 55 1018.4
20260504033504 48 115 0.0 0.0 0.00 0.00 0.00 54 1018.4
20260504032503 48 115 0.0 0.0 0.00 0.00 0.00 55 1018.4
20260504032004 48 115 0.0 0.0 0.00 0.00 0.00 56 1018.4
20260504031504 48 115 0.0 0.0 0.00 0.00 0.00 55 1018.4
20260504031004 48 115 0.0 1.0 0.00 0.00 0.00 55 1018.3
20260504030504 48 115 0.0 1.0 0.00 0.00 0.00 55 1018.4
20260504030004 48 115 0.0 0.0 0.00 0.00 0.00 53 1018.4
20260504025504 48 115 0.0 0.0 0.00 0.00 0.00 52 1018.3
20260504025005 49 115 0.0 1.0 0.00 0.00 0.00 53 1018.3
20260504024504 49 115 0.0 2.0 0.00 0.00 0.00 52 1018.2
20260504024004 49 115 1.0 2.0 0.00 0.00 0.00 52 1018.2
20260504023504 49 115 0.0 2.0 0.00 0.00 0.00 52 1018.2
20260504023004 49 115 0.0 2.0 0.00 0.00 0.00 53 1018.4
20260504022504 49 115 0.0 2.0 0.00 0.00 0.00 53 1018.2
20260504022004 50 115 1.0 2.0 0.00 0.00 0.00 51 1018.1
20260504021504 51 115 0.0 1.0 0.00 0.00 0.00 47 1018.1
20260504021004 52 115 0.0 1.0 0.00 0.00 0.00 43 1018.1
20260504020503 52 115 0.0 1.0 0.00 0.00 0.00 45 1018.1
20260504020004 52 115 0.0 0.0 0.00 0.00 0.00 45 1018.1
20260504015504 52 115 0.0 0.0 0.00 0.00 0.00 46 1018.1
20260504014504 52 115 0.0 2.0 0.00 0.00 0.00 45 1018.0
20260504014004 52 115 1.0 2.0 0.00 0.00 0.00 45 1017.9
20260504013503 52 115 0.0 1.0 0.00 0.00 0.00 44 1017.8
20260504013004 52 115 0.0 0.0 0.00 0.00 0.00 45 1017.8
20260504012504 53 115 0.0 0.0 0.00 0.00 0.00 44 1017.8
20260504012005 53 115 0.0 0.0 0.00 0.00 0.00 44 1017.7
20260504011504 54 115 0.0 0.0 0.00 0.00 0.00 43 1017.6
20260504011006 54 115 0.0 0.0 0.00 0.00 0.00 40 1017.6
20260504010503 54 115 0.0 0.0 0.00 0.00 0.00 40 1017.4
20260504010005 55 115 0.0 0.0 0.00 0.00 0.00 38 1017.5
20260504005504 55 115 0.0 0.0 0.00 0.00 0.00 38 1017.5
20260504005004 55 115 0.0 0.0 0.00 0.00 0.00 40 1017.5
20260504004504 55 115 0.0 0.0 0.00 0.00 0.00 40 1017.4
20260504003004 56 115 0.0 1.0 0.00 0.00 0.00 39 1017.2
20260504002504 57 115 0.0 1.0 0.00 0.00 0.00 39 1017.2
20260504002004 58 115 0.0 1.0 0.00 0.00 0.00 38 1017.1
20260504001504 59 128 0.0 1.0 0.00 0.00 0.00 35 1017.2
20260504001005 59 139 0.0 1.0 0.00 0.00 0.00 35 1017.2
20260504000504 60 139 0.0 1.0 0.00 0.00 0.00 31 1017.3
20260504000004 60 139 0.0 2.0 0.00 0.00 0.00 31 1017.3
20260503235504 60 139 1.0 2.0 0.00 0.00 0.00 31 1017.2
20260503235004 60 252 1.0 3.0 0.00 0.00 0.00 30 1017.3
20260503234504 61 253 1.0 5.0 0.00 0.00 0.00 29 1017.3
20260503233504 62 332 2.0 8.0 0.00 0.00 0.00 28 1017.3
20260503233004 62 331 2.0 8.0 0.00 0.00 0.00 28 1017.3
20260503232504 62 207 2.0 8.0 0.00 0.00 0.00 29 1017.2
20260503231504 63 202 3.0 8.0 0.00 0.00 0.00 28 1017.2
20260503231004 63 225 3.0 8.0 0.00 0.00 0.00 27 1017.1
20260503230505 63 311 1.0 8.0 0.00 0.00 0.00 28 1017.1
20260503230006 63 237 1.0 12.0 0.00 0.00 0.00 28 1017.0
20260503225504 63 324 2.0 12.0 0.00 0.00 0.00 28 1016.9
20260503225004 63 231 2.0 12.0 0.00 0.00 0.00 27 1017.1
20260503224004 64 305 1.0 7.0 0.00 0.00 0.00 28 1017.1
20260503223504 65 355 1.0 6.0 0.00 0.00 0.00 29 1017.1
20260503223004 65 344 3.0 7.0 0.00 0.00 0.00 26 1017.1
20260503222004 64 5 2.0 6.0 0.00 0.00 0.00 29 1017.2
20260503221504 64 225 1.0 6.0 0.00 0.00 0.00 28 1017.2
20260503221004 64 222 1.0 9.0 0.00 0.00 0.00 27 1017.3
20260503220504 64 325 2.0 10.0 0.00 0.00 0.00 29 1017.4
20260503220004 64 186 3.0 10.0 0.00 0.00 0.00 26 1017.4
20260503215505 64 336 3.0 10.0 0.00 0.00 0.00 30 1017.5
20260503215004 64 304 2.0 8.0 0.00 0.00 0.00 26 1017.4
20260503214504 64 337 3.0 8.0 0.00 0.00 0.00 28 1017.5
20260503214004 63 210 2.0 7.0 0.00 0.00 0.00 24 1017.5
20260503213505 64 224 3.0 13.0 0.00 0.00 0.00 26 1017.5
20260503213005 64 332 3.0 13.0 0.00 0.00 0.00 26 1017.6
20260503212505 64 342 8.0 13.0 0.00 0.00 0.00 27 1017.6
20260503212004 64 263 3.0 8.0 0.00 0.00 0.00 25 1017.7
20260503211504 64 235 2.0 8.0 0.00 0.00 0.00 27 1017.6
20260503211005 64 347 4.0 14.0 0.00 0.00 0.00 26 1017.7
20260503210504 64 233 6.0 14.0 0.00 0.00 0.00 28 1017.8
20260503210005 64 230 6.0 13.0 0.00 0.00 0.00 30 1017.7
20260503205505 63 228 4.0 12.0 0.00 0.00 0.00 26 1017.7
20260503204505 64 294 3.0 12.0 0.00 0.00 0.00 28 1017.7
20260503204005 64 355 6.0 15.0 0.00 0.00 0.00 27 1017.8
20260503203504 64 8 5.0 15.0 0.00 0.00 0.00 30 1017.9
20260503203004 64 330 5.0 12.0 0.00 0.00 0.00 29 1018.0
20260503202504 63 336 2.0 12.0 0.00 0.00 0.00 31 1018.0
20260503202004 63 339 2.0 12.0 0.00 0.00 0.00 29 1018.1
20260503201004 63 211 6.0 15.0 0.00 0.00 0.00 29 1018.2
20260503200504 63 329 4.0 15.0 0.00 0.00 0.00 28 1018.3
20260503200004 63 218 6.0 14.0 0.00 0.00 0.00 29 1018.5
20260503195504 62 316 5.0 15.0 0.00 0.00 0.00 31 1018.4
20260503195005 62 241 7.0 15.0 0.00 0.00 0.00 32 1018.7
20260503194504 63 203 5.0 17.0 0.00 0.00 0.00 34 1018.6
20260503194004 62 351 5.0 17.0 0.00 0.00 0.00 32 1018.7
20260503193504 61 347 3.0 12.0 0.00 0.00 0.00 33 1018.7
20260503193005 61 334 3.0 12.0 0.00 0.00 0.00 30 1018.7
20260503192504 62 301 5.0 12.0 0.00 0.00 0.00 32 1018.9
20260503191504 61 206 6.0 13.0 0.00 0.00 0.00 31 1018.9
20260503191004 61 324 7.0 17.0 0.00 0.00 0.00 31 1018.9
20260503190504 61 215 4.0 20.0 0.00 0.00 0.00 33 1018.9
20260503185504 60 242 2.0 12.0 0.00 0.00 0.00 32 1019.5
20260503185004 60 200 4.0 13.0 0.00 0.00 0.00 34 1019.7
20260503184005 60 323 5.0 14.0 0.00 0.00 0.00 35 1019.8
20260503183505 59 294 4.0 14.0 0.00 0.00 0.00 33 1019.9
20260503183004 60 324 6.0 13.0 0.00 0.00 0.00 34 1019.9
20260503182504 59 239 5.0 12.0 0.00 0.00 0.00 35 1019.8
20260503182005 59 204 6.0 15.0 0.00 0.00 0.00 33 1019.9
20260503181505 59 248 6.0 15.0 0.00 0.00 0.00 35 1019.9
20260503181004 59 229 6.0 14.0 0.00 0.00 0.00 36 1019.9
20260503180504 58 339 7.0 14.0 0.00 0.00 0.00 36 1020.1
20260503175504 58 331 4.0 13.0 0.00 0.00 0.00 40 1020.2
20260503174504 58 338 4.0 10.0 0.00 0.00 0.00 38 1020.2
20260503174004 57 319 3.0 12.0 0.00 0.00 0.00 36 1020.3
20260503172504 56 340 2.0 12.0 0.00 0.00 0.00 37 1020.5
20260503172004 56 207 6.0 12.0 0.00 0.00 0.00 38 1020.6
20260503171504 57 224 6.0 12.0 0.00 0.00 0.00 38 1020.6
20260503171003 56 188 3.0 9.0 0.00 0.00 0.00 39 1020.7
20260503151004 51 320 7.0 15.0 0.00 0.00 0.00 44 1022.0
20260503150504 51 339 3.0 12.0 0.00 0.00 0.00 47 1021.9
20260503131005 45 345 6.0 12.0 0.00 0.00 0.00 50 1021.9
20260503130504 45 316 5.0 14.0 0.00 0.00 0.00 50 1021.8
20260503110504 41 325 1.0 5.0 0.00 0.00 0.00 59 1020.9
20260503090504 42 331 0.0 5.0 0.00 0.00 0.00 57 1018.8
20260503081504 43 349 0.0 7.0 0.00 0.00 0.00 58 1018.4
20260503081004 42 346 2.0 7.0 0.00 0.00 0.00 59 1018.3
20260503080504 42 313 2.0 7.0 0.00 0.00 0.00 60 1018.3
20260503072504 44 288 0.0 3.0 0.00 0.00 0.00 59 1018.1
20260503071504 44 289 1.0 8.0 0.00 0.00 0.00 57 1018.0
20260503071004 43 6 2.0 8.0 0.00 0.00 0.00 58 1018.0
20260503055005 44 340 1.0 6.0 0.00 0.00 0.00 59 1017.7
20260503054504 45 336 1.0 5.0 0.00 0.00 0.00 57 1017.7
20260503053505 45 17 0.0 5.0 0.00 0.00 0.00 56 1017.6
20260503053005 45 17 0.0 5.0 0.00 0.00 0.00 56 1017.6
20260503052504 45 337 2.0 5.0 0.00 0.00 0.00 56 1017.7
20260503052004 45 337 1.0 3.0 0.00 0.00 0.00 57 1017.6
20260503051504 45 342 0.0 0.0 0.00 0.00 0.00 57 1017.6
20260503051005 45 342 0.0 0.0 0.00 0.00 0.00 56 1017.7
20260503050504 45 342 0.0 3.0 0.00 0.00 0.00 56 1017.6
20260503050004 45 342 1.0 3.0 0.00 0.00 0.00 56 1017.6
20260503045504 45 344 0.0 2.0 0.00 0.00 0.00 55 1017.5